User: anonymous   Login
Location: Unspecified
(0.0000°N, 0.0000°E)
Time: 14:45:53
(UTC+00:00)
Language:

SOMP - Orbit

View from above orbital plane
View from above orbital plane
View from above satellite
View from above satellite

Ground track
Ground track

The orbit data is extracted from the following two-line orbital elements,

1 39135U 13015F   17202.90507983 +.00001022 +00000-0 +63163-4 0  9992
2 39135 064.8696 123.6352 0033664 277.9953 081.7352 15.15644940234181
Epoch (UTC): 21 July 2017 21:43:18
Eccentricity: 0.0033664
inclination: 64.8696°
perigee height: 496 km
apogee height: 542 km
right ascension of ascending node: 123.6352°
argument of perigee: 277.9953°
revolutions per day: 15.15644940
mean anomaly at epoch: 81.7352°
orbit number at epoch: 23418

The dashed part of the orbit path shows where the satellite is in the earth's shadow,  

DLR